FW5774 Weather Reports


Display with metric or nautical units.
time (UTC)temp
F
wind
direction
speed
MPH
gust
MPH
rain 1hr
in
rain 24hr
in
rain mn
in
humidity
%
barometer
mb
20210517134504 54 180 1.0 3.0 0.04 0.26 0.25 89 1003.9
20210517134005 54 130 1.0 2.0 0.05 0.26 0.25 90 1004.0
20210517133505 54 87 1.0 3.0 0.04 0.25 0.24 91 1004.1
20210517133004 54 83 2.0 4.0 0.04 0.25 0.24 92 1004.1
20210517132505 54 76 2.0 4.0 0.04 0.24 0.24 93 1004.2
20210517132005 55 54 1.0 4.0 0.03 0.24 0.24 93 1004.2
20210517131504 54 65 1.0 3.0 0.04 0.24 0.23 93 1004.2
20210517131005 55 84 2.0 3.0 0.03 0.23 0.22 93 1004.2
20210517130504 55 81 3.0 4.0 0.04 0.23 0.22 93 1004.1
20210517130005 54 69 2.0 4.0 0.04 0.23 0.22 93 1004.1
20210517125505 55 35 1.0 3.0 0.04 0.22 0.21 93 1004.1
20210517125004 55 60 2.0 3.0 0.04 0.22 0.21 93 1004.2
20210517124505 55 56 2.0 3.0 0.05 0.22 0.21 93 1004.2
20210517124007 55 56 2.0 3.0 0.04 0.21 0.20 93 1004.2
20210517123505 55 66 2.0 3.0 0.05 0.21 0.20 93 1004.3
20210517123005 54 63 2.0 3.0 0.05 0.21 0.20 92 1004.2
20210517122505 54 72 1.0 3.0 0.05 0.20 0.20 92 1004.3
20210517122005 54 79 0.0 2.0 0.05 0.20 0.20 92 1004.4
20210517121505 54 74 0.0 2.0 0.05 0.20 0.19 91 1004.3
20210517121005 54 97 1.0 2.0 0.05 0.20 0.19 92 1004.4
20210517120504 55 108 2.0 6.0 0.04 0.19 0.18 92 1004.3
20210517120005 55 106 3.0 6.0 0.04 0.19 0.18 91 1004.4
20210517115505 55 99 2.0 6.0 0.04 0.18 0.17 91 1004.4
20210517115005 55 21 1.0 3.0 0.04 0.18 0.17 91 1004.3
20210517114005 55 333 1.0 2.0 0.03 0.17 0.17 90 1004.3
20210517113505 55 305 1.0 2.0 0.03 0.17 0.16 90 1004.4
20210517113005 55 296 0.0 2.0 0.03 0.17 0.16 89 1004.4
20210517112505 55 296 0.0 2.0 0.03 0.16 0.15 89 1004.4
20210517112004 55 295 0.0 1.0 0.04 0.16 0.15 90 1004.4
20210517111505 55 295 0.0 1.0 0.04 0.15 0.14 89 1004.3
20210517111005 55 295 0.0 2.0 0.04 0.15 0.14 90 1004.3
20210517110505 54 295 1.0 2.0 0.04 0.15 0.14 90 1004.3
20210517110004 55 304 1.0 2.0 0.04 0.14 0.13 91 1004.3
20210517105510 55 314 1.0 2.0 0.04 0.14 0.13 91 1004.3
20210517105009 55 10 0.0 3.0 0.04 0.14 0.13 93 1004.2
20210517104504 55 7 1.0 3.0 0.04 0.15 0.13 92 1004.2
20210517104004 55 9 1.0 3.0 0.04 0.15 0.13 93 1004.2
20210517103505 55 216 0.0 2.0 0.04 0.14 0.13 92 1004.3
20210517103005 55 215 0.0 1.0 0.04 0.14 0.13 92 1004.4
20210517102504 54 220 0.0 1.0 0.04 0.13 0.12 92 1004.5
20210517102004 55 225 0.0 2.0 0.03 0.13 0.11 92 1004.6
20210517101504 54 230 1.0 3.0 0.02 0.12 0.10 92 1004.7
20210517101004 55 236 2.0 4.0 0.03 0.12 0.10 92 1004.7
20210517100505 55 248 3.0 5.0 0.03 0.12 0.10 92 1004.8
20210517100005 55 257 4.0 7.0 0.02 0.11 0.09 92 1004.7
20210517095504 55 260 4.0 7.0 0.02 0.11 0.09 92 1004.7
20210517095007 55 258 3.0 7.0 0.02 0.11 0.09 92 1004.6
20210517094504 55 252 4.0 7.0 0.02 0.11 0.09 92 1004.7
20210517094004 55 249 4.0 7.0 0.02 0.11 0.09 92 1004.7
20210517093505 55 246 4.0 7.0 0.02 0.10 0.09 92 1004.6
20210517093004 55 238 4.0 7.0 0.02 0.11 0.09 92 1004.6
20210517092505 55 233 4.0 5.0 0.01 0.10 0.08 92 1004.6
20210517092005 55 222 4.0 6.0 0.01 0.10 0.08 92 1004.7
20210517091504 55 211 5.0 7.0 0.01 0.10 0.08 91 1004.8
20210517091005 55 208 4.0 7.0 0.00 0.09 0.07 91 1004.7
20210517090505 56 213 4.0 5.0 0.00 0.09 0.07 90 1004.6
20210517085505 56 219 3.0 5.0 0.00 0.10 0.07 90 1004.5
20210517085005 56 203 3.0 4.0 0.00 0.10 0.07 90 1004.5
20210517084505 56 199 2.0 4.0 0.00 0.10 0.07 89 1004.4
20210517084005 55 191 2.0 5.0 0.00 0.11 0.07 89 1004.4
20210517083505 55 175 3.0 5.0 0.00 0.11 0.07 88 1004.4
20210517083004 55 156 3.0 7.0 0.00 0.11 0.07 89 1004.5
20210517082505 55 147 3.0 7.0 0.00 0.11 0.07 90 1004.4
20210517082004 55 147 4.0 7.0 0.00 0.11 0.07 89 1004.5
20210517081504 55 149 4.0 7.0 0.00 0.11 0.07 89 1004.4
20210517081005 55 155 4.0 7.0 0.00 0.11 0.07 89 1004.5
20210517080504 55 150 4.0 6.0 0.00 0.12 0.07 89 1004.5
20210517080005 55 130 4.0 6.0 0.00 0.12 0.07 91 1004.5
20210517075505 55 126 5.0 8.0 0.00 0.12 0.07 91 1004.5
20210517075004 55 127 5.0 9.0 0.00 0.12 0.07 90 1004.6
20210517074505 55 131 5.0 9.0 0.00 0.12 0.07 91 1004.6
20210517074005 55 136 5.0 8.0 0.01 0.12 0.07 91 1004.6
20210517073505 55 136 4.0 8.0 0.01 0.12 0.07 92 1004.6
20210517073004 54 134 4.0 8.0 0.01 0.12 0.07 92 1004.6
20210517072504 54 130 3.0 7.0 0.01 0.12 0.07 93 1004.8
20210517072005 54 129 3.0 6.0 0.01 0.13 0.07 94 1004.7
20210517071504 54 137 3.0 6.0 0.01 0.13 0.07 95 1004.8
20210517071004 53 140 3.0 6.0 0.01 0.13 0.07 95 1004.8
20210517070505 53 143 3.0 6.0 0.01 0.13 0.07 95 1004.9
20210517070004 53 138 2.0 5.0 0.01 0.13 0.07 95 1005.0
20210517065505 52 133 2.0 3.0 0.01 0.13 0.07 96 1005.0
20210517065004 52 128 2.0 3.0 0.01 0.13 0.07 96 1004.9
20210517064505 52 121 2.0 4.0 0.01 0.13 0.07 96 1004.9
20210517064004 52 121 2.0 4.0 0.00 0.13 0.06 96 1004.9
20210517063505 52 118 2.0 3.0 0.00 0.13 0.06 96 1005.1
20210517063004 52 118 1.0 3.0 0.00 0.13 0.06 96 1005.0
20210517062505 52 119 1.0 2.0 0.00 0.13 0.06 96 1005.0
20210517062005 52 126 1.0 3.0 0.00 0.13 0.06 96 1005.1
20210517061505 51 138 1.0 3.0 0.00 0.13 0.06 96 1005.0
20210517061005 51 150 1.0 3.0 0.00 0.13 0.06 96 1005.2
20210517060504 51 150 2.0 5.0 0.00 0.13 0.06 96 1005.2
20210517060005 51 153 2.0 5.0 0.00 0.13 0.06 96 1005.2
20210517055504 51 163 2.0 4.0 0.00 0.13 0.06 96 1005.0
20210517055004 51 170 2.0 6.0 0.00 0.13 0.06 96 1005.1
20210517054505 51 168 3.0 6.0 0.01 0.13 0.06 96 1005.0
20210517054005 51 136 2.0 5.0 0.01 0.13 0.06 96 1005.0
20210517053505 51 104 2.0 4.0 0.01 0.13 0.06 96 1005.1
20210517053004 51 106 2.0 6.0 0.01 0.13 0.06 96 1004.9
20210517052504 51 108 2.0 6.0 0.01 0.13 0.06 96 1004.9
20210517052004 51 112 3.0 6.0 0.01 0.13 0.06 96 1005.0
20210517051505 51 118 3.0 7.0 0.01 0.13 0.06 96 1005.0
20210517051004 51 127 4.0 7.0 0.01 0.13 0.06 96 1004.9
20210517050505 51 115 4.0 7.0 0.01 0.13 0.06 96 1004.8
20210517050004 51 101 4.0 6.0 0.01 0.13 0.06 96 1004.9
20210517045504 51 100 3.0 6.0 0.01 0.13 0.06 96 1005.0
20210517045004 51 85 2.0 6.0 0.01 0.13 0.06 96 1005.0
20210517044505 51 74 2.0 3.0 0.00 0.12 0.06 96 1004.9
20210517044004 51 82 2.0 3.0 0.00 0.12 0.06 96 1005.0
20210517043504 51 90 2.0 3.0 0.00 0.12 0.06 96 1005.1
20210517043004 51 86 2.0 3.0 0.00 0.12 0.06 96 1004.8
20210517042504 51 87 2.0 3.0 0.00 0.12 0.06 96 1005.0
20210517042004 51 100 2.0 4.0 0.00 0.12 0.06 96 1005.0
20210517041505 51 100 2.0 4.0 0.00 0.12 0.06 96 1005.1
20210517041005 51 94 2.0 4.0 0.00 0.12 0.06 96 1005.1
20210517040505 51 92 2.0 4.0 0.00 0.12 0.06 96 1005.1
20210517040004 51 85 1.0 4.0 0.00 0.12 0.06 96 1005.0
20210517035504 51 336 1.0 2.0 0.00 0.12 0.06 96 1005.1
20210517035004 51 48 2.0 4.0 0.00 0.12 0.06 96 1005.1
20210517034505 50 70 2.0 4.0 0.01 0.12 0.06 96 1004.8
20210517034004 50 68 2.0 5.0 0.01 0.12 0.06 96 1004.8
20210517033504 50 60 2.0 5.0 0.02 0.12 0.06 96 1004.7
20210517033004 50 70 2.0 4.0 0.02 0.12 0.06 96 1004.7
20210517032504 50 77 3.0 7.0 0.02 0.12 0.06 96 1004.6
20210517032004 50 62 2.0 7.0 0.02 0.12 0.06 96 1004.6
20210517031504 50 304 2.0 6.0 0.02 0.12 0.06 95 1004.9
20210517031004 50 279 2.0 6.0 0.02 0.12 0.06 95 1005.1
20210517030504 50 98 2.0 6.0 0.03 0.12 0.06 95 1005.0
20210517030005 50 91 4.0 8.0 0.03 0.12 0.06 95 1004.4
20210517025505 50 88 6.0 9.0 0.03 0.12 0.06 95 1004.3
20210517025004 50 86 7.0 10.0 0.03 0.13 0.06 95 1004.4
20210517024504 50 84 5.0 10.0 0.03 0.12 0.05 94 1004.4
20210517024005 50 84 2.0 8.0 0.03 0.12 0.05 94 1004.9
20210517023504 50 19 1.0 4.0 0.03 0.11 0.04 94 1005.4
20210517023004 50 303 1.0 4.0 0.03 0.10 0.04 94 1005.5
20210517022505 50 305 0.0 2.0 0.03 0.10 0.03 94 1005.5
20210517022004 50 338 0.0 1.0 0.03 0.10 0.03 94 1005.6
20210517021504 50 328 0.0 2.0 0.03 0.10 0.03 93 1005.2
20210517021004 50 337 1.0 3.0 0.03 0.10 0.03 93 1005.2
20210517020504 50 331 1.0 3.0 0.02 0.09 0.02 93 1005.2
20210517020004 50 323 1.0 3.0 0.02 0.09 0.02 92 1005.3
20210517015504 50 298 1.0 8.0 0.02 0.09 0.02 92 1005.4
20210517015004 51 271 3.0 8.0 0.02 0.09 0.02 92 1005.5
20210517014504 50 266 6.0 12.0 0.02 0.09 0.02 92 1005.6
20210517014005 50 262 6.0 12.0 0.02 0.09 0.02 92 1005.4
20210517013504 50 256 3.0 10.0 0.01 0.08 0.01 92 1005.5
20210517013004 50 238 2.0 3.0 0.00 0.07 0.00 92 1005.2
20210517012504 50 214 2.0 3.0 0.00 0.07 0.00 93 1005.2
20210517012004 49 207 2.0 3.0 0.00 0.07 0.00 93 1005.1
20210517011504 49 207 2.0 3.0 0.00 0.07 0.00 93 1005.0
20210517011004 49 195 1.0 3.0 0.00 0.07 0.00 93 1005.0
20210517010504 49 175 0.0 2.0 0.00 0.07 0.00 93 1005.1
20210517010004 48 199 0.0 2.0 0.00 0.07 0.00 94 1004.9
20210517005504 48 213 1.0 4.0 0.00 0.07 0.00 93 1004.9
20210517005004 47 213 1.0 4.0 0.00 0.07 0.00 92 1004.9
20210517004504 48 0 0.0 0.0 0.00 0.07 0.00 93 1004.9
20210517004004 48 0 0.0 0.0 0.00 0.07 0.00 93 1004.7
20210517003504 48 0 0.0 0.0 0.00 0.07 0.00 93 1004.8
20210517003004 48 0 0.0 0.0 0.00 0.07 0.00 93 1004.8
20210517002504 48 0 0.0 0.0 0.00 0.07 0.00 93 1004.9
20210517002004 48 0 0.0 0.0 0.00 0.07 0.00 94 1004.9
20210517001504 48 0 0.0 0.0 0.00 0.07 0.00 94 1005.0
20210517001004 48 0 0.0 0.0 0.00 0.07 0.00 94 1005.0
20210517000504 47 0 0.0 0.0 0.00 0.07 0.00 95 1005.1
20210517000004 47 0 0.0 0.0 0.00 0.07 0.00 95 1005.1
20210516235504 46 0 0.0 0.0 0.00 0.07 0.00 95 1005.3
20210516235004 46 0 0.0 0.0 0.00 0.07 0.00 95 1005.3
20210516234505 46 0 0.0 0.0 0.00 0.07 0.00 95 1005.3
20210516234004 45 0 0.0 0.0 0.00 0.07 0.00 95 1005.4
20210516233504 45 0 0.0 0.0 0.00 0.07 0.00 94 1005.4
20210516233004 46 0 0.0 0.0 0.00 0.07 0.00 95 1005.4
20210516232504 46 0 0.0 0.0 0.00 0.07 0.00 95 1005.5
20210516232004 46 0 0.0 0.0 0.00 0.07 0.00 95 1005.6
20210516231504 46 0 0.0 0.0 0.00 0.07 0.00 95 1005.7
20210516231004 46 0 0.0 0.0 0.00 0.07 0.00 95 1005.7
20210516230504 45 0 0.0 0.0 0.00 0.07 0.00 95 1005.7
20210516230004 45 0 0.0 0.0 0.00 0.07 0.00 95 1005.8
20210516225504 45 0 0.0 0.0 0.00 0.07 0.00 95 1005.8
20210516225004 45 0 0.0 0.0 0.00 0.07 0.00 95 1005.8
20210516224504 46 0 0.0 0.0 0.00 0.07 0.00 95 1005.7
20210516224004 46 0 0.0 0.0 0.00 0.07 0.00 95 1005.7
20210516223504 46 0 0.0 0.0 0.00 0.07 0.00 95 1005.8
20210516223004 46 0 0.0 0.0 0.00 0.07 0.00 94 1005.8
20210516222504 46 0 0.0 0.0 0.00 0.07 0.00 94 1005.8
20210516222004 46 0 0.0 0.0 0.00 0.07 0.00 93 1005.9
20210516221504 46 0 0.0 0.0 0.00 0.07 0.00 94 1005.8
20210516221004 46 0 0.0 0.0 0.00 0.07 0.00 93 1005.8
20210516220504 46 0 0.0 0.0 0.00 0.07 0.00 93 1005.8
20210516220005 47 0 0.0 0.0 0.00 0.07 0.00 93 1005.8
20210516215504 47 0 0.0 0.0 0.00 0.07 0.07 92 1005.9
20210516215004 47 0 0.0 0.0 0.00 0.07 0.07 92 1005.8
20210516214504 47 0 0.0 0.0 0.00 0.07 0.07 91 1005.8
20210516214004 46 0 0.0 0.0 0.00 0.07 0.07 89 1005.7
20210516213504 48 266 0.0 1.0 0.00 0.07 0.07 91 1005.7
20210516213004 49 266 1.0 2.0 0.00 0.07 0.07 92 1005.6
20210516212504 48 265 2.0 3.0 0.00 0.07 0.07 94 1005.6
20210516212004 47 256 2.0 3.0 0.00 0.07 0.07 94 1005.7
20210516211504 46 225 3.0 7.0 0.00 0.07 0.07 94 1005.7
20210516211004 46 214 2.0 7.0 0.00 0.07 0.07 92 1005.7
20210516210504 47 238 0.0 2.0 0.00 0.07 0.07 93 1005.7
20210516210004 47 238 0.0 1.0 0.00 0.07 0.07 93 1005.6
20210516205504 46 238 1.0 2.0 0.00 0.07 0.07 93 1005.7
20210516205004 46 238 1.0 2.0 0.00 0.07 0.07 93 1005.7
20210516204504 46 238 1.0 2.0 0.00 0.07 0.07 93 1005.7
20210516204004 46 238 2.0 2.0 0.00 0.07 0.07 92 1005.7
20210516203504 47 238 1.0 2.0 0.00 0.07 0.07 92 1005.7
20210516203004 47 238 1.0 2.0 0.00 0.07 0.07 93 1005.7
20210516202504 48 238 1.0 2.0 0.00 0.07 0.07 92 1005.7
20210516202004 48 238 1.0 2.0 0.00 0.07 0.07 93 1005.8
20210516201504 48 237 1.0 2.0 0.00 0.07 0.07 93 1005.8
20210516201004 47 235 2.0 3.0 0.00 0.07 0.07 93 1005.7
20210516200503 47 226 1.0 3.0 0.00 0.07 0.07 92 1005.7
20210516200004 47 219 1.0 3.0 0.00 0.07 0.07 89 1005.7
20210516195504 49 0 0.0 0.0 0.01 0.07 0.07 92 1005.8
20210516195004 49 0 0.0 0.0 0.01 0.07 0.07 92 1005.7
20210516194504 49 0 0.0 0.0 0.01 0.07 0.07 91 1005.7
20210516194004 50 0 0.0 0.0 0.01 0.07 0.07 91 1005.7
20210516193504 50 0 0.0 0.0 0.01 0.07 0.07 91 1005.6
20210516193004 50 0 0.0 0.0 0.01 0.07 0.07 91 1005.6
20210516192504 50 0 0.0 0.0 0.01 0.07 0.07 90 1005.7
20210516192004 49 0 0.0 0.0 0.01 0.07 0.07 89 1005.7
20210516191504 50 0 0.0 0.0 0.01 0.07 0.07 88 1005.8
20210516191004 51 0 0.0 0.0 0.01 0.07 0.07 88 1005.6
20210516190504 51 0 0.0 0.0 0.01 0.07 0.07 86 1005.6
20210516190004 52 0 0.0 0.0 0.01 0.07 0.07 87 1005.5
20210516185504 52 0 0.0 0.0 0.00 0.06 0.06 87 1005.3
20210516185004 53 0 0.0 0.0 0.00 0.06 0.06 87 1005.2
20210516184504 53 0 0.0 0.0 0.00 0.06 0.06 85 1005.1
20210516184004 53 0 0.0 0.0 0.00 0.06 0.06 85 1005.2
20210516183504 53 0 0.0 0.0 0.00 0.06 0.06 82 1005.0
20210516183003 55 0 0.0 0.0 0.00 0.06 0.06 78 1005.0
20210516182503 55 0 0.0 0.0 0.00 0.06 0.06 79 1005.0
20210516182003 55 0 0.0 0.0 0.00 0.06 0.06 78 1005.0
20210516181503 56 0 0.0 0.0 0.00 0.06 0.06 77 1004.9
20210516181004 56 0 0.0 0.0 0.00 0.06 0.06 75 1004.9
20210516180504 57 0 0.0 0.0 0.00 0.06 0.06 76 1004.8
20210516180003 57 238 0.0 1.0 0.00 0.06 0.06 75 1004.8
20210516175504 58 238 0.0 1.0 0.00 0.06 0.06 73 1004.8
20210516175004 58 236 0.0 2.0 0.00 0.06 0.06 71 1004.9
20210516174504 58 238 1.0 3.0 0.00 0.06 0.06 71 1004.9
20210516174004 58 237 2.0 4.0 0.00 0.06 0.06 71 1004.9
20210516173503 59 239 2.0 4.0 0.00 0.06 0.06 70 1004.9
20210516173004 59 245 1.0 3.0 0.00 0.06 0.06 69 1005.0
20210516172503 60 249 1.0 3.0 0.00 0.06 0.06 68 1005.1
20210516172004 60 248 1.0 3.0 0.00 0.06 0.06 71 1005.1
20210516171503 60 253 2.0 4.0 0.00 0.06 0.06 66 1005.0
20210516171004 61 265 3.0 5.0 0.00 0.06 0.06 67 1005.1
20210516170503 61 265 2.0 5.0 0.00 0.06 0.06 66 1005.1
20210516170004 61 252 2.0 5.0 0.00 0.06 0.06 66 1005.2
20210516165504 60 240 2.0 6.0 0.00 0.06 0.06 68 1005.1
20210516165003 60 267 2.0 6.0 0.00 0.06 0.06 68 1005.1
20210516164504 61 270 3.0 7.0 0.00 0.06 0.06 66 1005.1
20210516164004 61 251 4.0 7.0 0.00 0.06 0.06 65 1005.1
20210516163504 62 252 4.0 7.0 0.00 0.06 0.06 65 1005.1
20210516163003 61 250 4.0 7.0 0.00 0.06 0.06 66 1005.1
20210516162503 61 230 5.0 9.0 0.00 0.06 0.06 66 1005.2
20210516162004 61 230 6.0 10.0 0.00 0.06 0.06 66 1005.2
20210516161504 62 248 5.0 10.0 0.00 0.06 0.06 65 1005.2
20210516161004 62 266 4.0 9.0 0.00 0.06 0.06 66 1005.4
20210516160504 62 274 5.0 11.0 0.00 0.06 0.06 65 1005.5
20210516160004 61 277 5.0 11.0 0.00 0.06 0.06 67 1005.5
20210516155504 62 284 4.0 10.0 0.00 0.06 0.06 63 1005.4
20210516155004 63 265 4.0 9.0 0.00 0.06 0.06 63 1005.5
20210516154504 63 282 3.0 9.0 0.00 0.06 0.06 65 1005.5
20210516154004 62 352 2.0 6.0 0.00 0.06 0.06 68 1005.5
20210516153504 62 322 2.0 5.0 0.00 0.06 0.06 66 1005.5
20210516153004 62 254 3.0 7.0 0.00 0.06 0.06 66 1005.5
20210516152525 62 252 3.0 7.0 0.00 0.06 0.06 71 1005.5
20210516152004 61 271 3.0 8.0 0.00 0.06 0.06 66 1005.5
20210516151504 62 257 4.0 9.0 0.00 0.06 0.06 66 1005.5
20210516151003 61 253 3.0 9.0 0.00 0.06 0.06 68 1005.6
20210516150504 61 265 1.0 4.0 0.00 0.06 0.06 67 1005.5
20210516150004 61 234 1.0 3.0 0.00 0.06 0.06 67 1005.5
20210516145504 60 212 2.0 4.0 0.00 0.06 0.06 68 1005.7
20210516145004 60 212 2.0 6.0 0.00 0.06 0.06 69 1005.7
20210516144504 60 206 3.0 8.0 0.00 0.06 0.06 70 1005.7
20210516144005 60 201 5.0 8.0 0.00 0.06 0.06 73 1005.8
20210516143505 59 215 5.0 8.0 0.00 0.06 0.06 72 1005.9
20210516143005 60 234 6.0 8.0 0.00 0.06 0.06 72 1005.8
20210516142505 60 236 6.0 9.0 0.00 0.06 0.06 73 1005.8
20210516142005 60 240 4.0 9.0 0.00 0.06 0.06 71 1005.8
20210516141505 60 249 4.0 10.0 0.00 0.06 0.06 72 1005.8
20210516141005 60 244 5.0 10.0 0.00 0.06 0.06 72 1005.7
20210516140505 60 235 6.0 9.0 0.00 0.06 0.06 72 1005.8
20210516140005 60 241 6.0 11.0 0.00 0.06 0.06 75 1005.8
20210516135504 60 255 6.0 11.0 0.00 0.06 0.06 73 1005.8
20210516135005 60 254 5.0 10.0 0.00 0.06 0.06 73 1005.9